Regional Weather Roundup
Issued by NWS Wakefield, VA

Home | Current Version | Previous Version | Text Only | Print | Product List | Glossary Off
Versions: 1 2 3 4 5 6 7 8 9 10 11 12 13 14 15 16 17 18 19 20 21 22 23 24 25 26 27 28 29 30 31 32 33 34 35 36 37 38 39 40 41 42 43 44 45 46 47 48 49 50

000
ASUS41 KAKQ 271910
RWRAKQ

REGIONAL WEATHER ROUNDUP
NATIONAL WEATHER SERVICE WAKEFIELD VA
300 PM EDT SUN JUL 27 2014

Note: "fair" indicates few or no clouds below 12,000 feet with no
significant weather and/or obstructions to visibility. * = Denotes
station may not report precipitation (e.g., rain,snow,etc.),
thunder or fog.

VAZ042-051-052>054-056-272000-
NORTHERN VIRGINIA

CITY           SKY/WX    TMP DP  RH WIND       PRES   REMARKS
WASH NATIONAL  PTSUNNY   86  69  56 S9        29.79F
DULLES         PTSUNNY   84  70  62 S13       29.78F
FORT BELVOIR   DRIZZLE   83  71  64 SW7       29.80F
QUANTICO       CLOUDY    81  68  64 W12G18    29.81F
FREDERICKSBRG* CLOUDY    83  72  67 SW10G20   29.80F
STAFFORD*      CLOUDY    81  72  75 S9        29.85F
WARRENTON      CLOUDY    83  76  80 SW7       29.80S
CULPEPER*      CLOUDY   N/A N/A N/A SW8       29.81S
MANASSAS*      SUNNY     81  72  74 SW9       29.80F
LEESBURG*      PTSUNNY   88  73  62 SW7       29.79F HX  96
WINCHESTER     CLOUDY    81  68  65 SW9G16    29.79F
$$

VAZ048-049-060>072-079>083-272000-
CENTRAL AND SOUTH CENTRAL VIRGINIA...AND NORTH CENTRAL NORTH CAROLINA

CITY           SKY/WX    TMP DP  RH WIND       PRES   REMARKS
RICHMOND       PTSUNNY   86  70  58 SW12      29.84F
CHESTERFIELD*  MOCLDY    82  64  54 SW10      29.86F
HANOVER        CLOUDY    83  69  62 SW13G18   29.85F
TAPPAHANNOCK*  CLOUDY    80  69  68 SW5       29.84F
CHARLOTTSVILLE CLOUDY    80  70  71 S12       29.81F
ORANGE*        CLOUDY    81  70  69 S9        29.83F
LOUISA*        CLOUDY    81  72  74 SW8       29.81F
FARMVILLE*     CLOUDY    81  72  74 S10G17    29.84F
SOUTH HILL*    CLOUDY    82  73  74 SW8       29.92F
ROANOKE RAPIDS NOT AVBL
RALEIGH        PTSUNNY   83  73  72 SW7       29.92F
$$

VAZ088>098-272000-
SOUTHEAST VIRGINIA

CITY           SKY/WX    TMP DP  RH WIND       PRES   REMARKS
NORFOLK        CLOUDY    79  71  76 SW15      29.83F
VIRGINIA BEACH CLOUDY    79  72  79 SW10      29.83F
NORFOLK NAVAL  CLOUDY    81  71  71 SW6       29.84F
WEST POINT*    CLOUDY    83  71  66 SW8       29.85F
NEWPORT NEWS   CLOUDY    85  72  65 SW16G23   29.84F
LANGLEY AFB    CLOUDY    81  73  76 SW13      29.83F
FORT EUSTIS    CLOUDY    81  73  75 SW8       29.82F
WILLIAMSBURG*  CLOUDY    84  73  70 SW10      29.85F
FRANKLIN*      CLOUDY    75  72  88 W5        29.85F
WAKEFIELD      CLOUDY    79  70  74 VRB6G17   29.85F
$$

VAZ020-022-025-037-045-272000-
WESTERN AND SOUTHWEST VIRGINIA

CITY           SKY/WX    TMP DP  RH WIND       PRES   REMARKS
STAUNTON*      RAIN      76  69  78 S6        29.86S
HOT SPRINGS VA CLOUDY    66  63  90 W13       30.02F
LYNCHBURG      CLOUDY    82  69  64 W8        29.90S
DANVILLE       PTSUNNY   80  72  76 VRB5      29.91F
MARTINSVILLE   PTSUNNY   84  71  64 S5        29.93F
ROANOKE        CLOUDY    81  68  64 W7        29.91F
BLACKSBURG     CLOUDY    77  72  83 SW6         N/A
DUBLIN*        CLOUDY    77  69  74 SW12      29.96F
MARION*        LGT RAIN N/A N/A N/A W10G17    30.04F
HILLSVILLE*    CLOUDY    76  63  62 W13G21    30.02F
RICHLANDS*     LGT RAIN  73  68  84 SW5       30.01F
WISE*          CLOUDY    72  72 100 S3        30.03S THUNDER
ABINGDON*      CLOUDY    76  71  85 W5        30.00F
$$

MDZ021>025-VAZ099-100-272000-
SOUTHERN MARYLAND AND THE DELMARVA PENINSULA

CITY           SKY/WX    TMP DP  RH WIND       PRES   REMARKS
PATUXENT RIVER CLOUDY    80  71  74 SW13G20   29.81F
BAY BRIDGE APT   N/A     81  68  65 S12       29.78S
LEONARDTOWN    CLOUDY    79  68  69 SW12G18   29.83F
DOVER          MOSUNNY   84  73  69 SW16      29.76F
GEORGETOWN     CLOUDY    80  69  69 S15G25    29.81F
EASTON         PTSUNNY   81  72  74 SW15      29.84S
CAMBRIDGE      CLOUDY    81  70  69 SW8       29.81F
SALISBURY      NOT AVBL
OCEAN CITY     CLOUDY    80  71  74 SW13      29.82F
WALLOPS ISLAND CLOUDY    81  72  74 W9G17     29.84F
ACCOMACK*        N/A     79  72  78 SW10      29.85F
$$

NCZ012>017-030>032-272000-
EASTERN NORTH CAROLINA

CITY           SKY/WX    TMP DP  RH WIND       PRES   REMARKS
ELIZABETH CITY LGT RAIN  79  74  84 W7        29.85F
AHOSKIE*       PTSUNNY   76  72  89 S3        29.86F
EDENTON*       CLOUDY    80  72  76 SW12      29.88F
CURRITUCK*     CLOUDY    83  72  70 W7        29.86F
KILL DEVIL HLS CLOUDY    84  74  72 W8        29.85F
MANTEO         NOT AVBL
CAPE HATTERAS  PTSUNNY   85  80  85 SW13      29.89F HX  99
GOLDSBORO      CLOUDY    82  73  75 SW9       29.90F
WASHINGTON     CLOUDY    76  70  82 W3        29.91F
GREENVILLE     CLOUDY    77  72  83 CALM      29.91F
NEW BERN       CLOUDY    82  68  62 NW6       29.92F
WILMINGTON     CLOUDY    91  72  53 W12       29.91F HX  98
$$

VAZ048-272000-
ELSEWHERE

CITY           SKY/WX    TMP DP  RH WIND       PRES   REMARKS
HARRISBURG PA  PTSUNNY   91  66  43 W12       29.72F
BALTIMORE      CLOUDY    86  70  58 SW9       29.76S
ANNAPOLIS      PTSUNNY   84  71  65 SW10G18   29.77S
ANDREWS AFB    PTSUNNY   82  71  69 SW13      29.80S
WILMINGTON DE  PTSUNNY   88  70  55 SW10      29.75S
PHILADELPHIA   PTSUNNY   89  68  49 W12       29.74S
WILDWOOD NJ*   PTSUNNY   82  70  65 S14       29.80S
ATLANTIC CITY  MOSUNNY   85  69  58 SW16      29.76S
HENDERSON NC   MOSUNNY   80  69  69 SW9       29.91F
GREENSBORO     PTSUNNY   85  70  60 SW13G18   29.91F
ROCKY MOUNT    CLOUDY    80  72  76 SW10      29.91F
FAYETTEVILLE   SUNNY     90  71  53 W6        29.92F HX  96
CHARLOTTE      PTSUNNY   89  68  49 S13       29.94F
$$

VAZ100-272000-
MARINE

STATION/POSITION TIME  TEMP    WIND        PRES    WAVE   SWELL
                       AIR SEA DIR/SP/G            HT/PER HT/PER
                 (UTC) (F)     (DEG/KT/KT) (MB)    (FT/S) (FT/S)
44066 TX TWR #4  1900   75 74  190/ 14/ 17 1008.0F   3/ 5   2/ 7
CAPE MAY NJ      1900   78 78  180/  7/ 10 1008.4F
LEWES DE         1900   80 71  250/ 10/ 17 1008.7S
15NM E FENWICK I 1900   75 74              1009.7F   3/ 5
OCEAN-CITY-INLET 1900   77 72  240/ 15/ 19 1009.6S
WACHAPREAGUE VA  1900   78 79  240/  6/ 10 1010.7F
THOMAS POINT MD  1900   80 80  220/ 14/ 15 1009.1F
GOOSES REEF MD   1900   79     250/ 14/ 16 1009.8F
COVE POINT MD    1900   79     250/ 10/ 14 1009.3F
SOLOMONS ISLAND  1900      80                N/A
BISHOPS HEAD MD  1900   77 78  210/ 12/ 14 1009.6F
PINEY POINT MD   1900          240/  6/ 10   N/A
POTOMAC MD       1900   78     240/ 12/ 14 1009.4F
CAMBRIDGE MD     1900   80 80  220/ 10/ 13 1009.2F
LEWISETTA VA     1900   80 80  230/ 13/ 15 1009.5F
RAPPAHANNOCK LGT 1900          230/ 11/ 12 1011.0F
STINGRAY PT      1900   77     260/ 10/ 12 1011.4S
YORK RVR RNG VA  1900   80     230/ 17/ 19 1009.5F
YORKTOWN VA      1900   80 80  220/ 14/ 18 1009.7F
JAMESTOWN VA     1900   77     260/ 14/ 17   N/A
DOMINION TERM VA 1900   79     230/ 14/ 18 1010.4F
KIPTOPEKE VA     1900      81  270/ 12/ 14   N/A
CHES BAY BRIDGE  1900   80 80  200/ 13/ 16 1009.6F
CAPE HENRY VA    1900   79     220/  9/ 20 1009.1F
WILLOUBY STN VA  1900          250/ 12/ 14 1009.6F
S CRANEY ISL VA  1900          220/ 10/ 15 1010.1F
CAPE HENRY BUOY  1900      77                N/A     2/ 6
1ST LANDING BUOY 1900   80     240/ 14/ 17 1010.3F
CAPE CHARLES BUO 1900      76                N/A     2/11
OFFSHORE WE BUOY 1900      78                N/A     2/ 7
64NM E OF VA BCH 1900   80 78  230/ 10/ 12 1010.9F   3/ 4   2/ 6
DUCK PIER NC     1900   82 71  250/ 12/ 19 1010.5F
44056 DUCK FRF   1900                        N/A     2/ 7
OREGON INLET NC  1900   81 82  220/ 19/ 22 1011.4F
HATTERAS NC      1900   83 82  210/ 10/ 14 1012.5F
DIAMOND SHLS NC  1900          VRB 17/ 19  1012.3F   3/ 4   2/11
CAPE LOOKOUT NC  1800   84     220/ 10/ 12 1012.7F
$$



USA.gov is the U.S. government's official web portal to all federal, state and local government web resources and services.